星链-37038(STARLINK-37038)

导读

STARLINK-37038(NORAD编号68226)是美国SpaceX公司星链(Starlink)卫星互联网星座中的一颗第二代低轨通信卫星,隶属于SpaceX打造的全球卫星互联网组网项目。星链星座计划通过部署数万颗低轨卫星,为全球提供高速、低延迟的宽带互联网服务。该卫星运行在近地轨道,主要为用户提供互联网接入服务,补充星座网络覆盖容量,助力实现全球无死角互联网接入,同时星链星座目前也已大规模轨道重构以降低太空碎片风险,提升太空运行安全,STARLINK-37038也参与其中承担通信服务任务。

Basic Information
目录编号:
68226
目录名称:
STARLINK-37038
国际标识:
2026-053V
轨道中心:
EARTH
卫星名称:
星链-37038
卫星全名:
星链-37038(STARLINK-37038)
卫星状态:
在轨 (已飞行180 天)
发射日期:
2026-03-17 UTC
国别 :
美国 (US)
星等 :
--
This satellite is enrolled in the Space Conjunction Data Service (SCDS) and the current flight risk assessment level is: No High Risk
Orbit Information
数据来源 国际轨道数据
星历时间: 2026-09-12T23:37:02+0800
19小时前
查看轨道信息
半长轴: 6843.721km
偏心率: 0.0002037
轨道倾角: 97.284°
近地点辐角 85.566°
升交点赤经 129.589°
平近点角 274.582°
近地点: 464.189km
远地点: 466.979km
周期: 93.907分钟
每日圈数: 15.334314
Detailed Information
固有亮度:
5
最大亮度:
2.5
卫星平台:
Starlink V1.0
覆盖范围:
全球
运营商:
太空探索技术公司
运营商所在国:
美国
制造商(研发单位):
太空探索技术公司
制造商所在国:
美国
使用方式:
暂无
Satellite Introduction
Starlink 计划是 SpaceX 推出的全球卫星互联网项目,通过发射低轨道卫星,为全球尤其是偏远地区提供高速、低延迟的互联网服务。自 2019 年起,Starlink 已部署数千颗卫星,旨在缩小全球数字鸿沟,推动互联网普及。该项目还为军事、航空等行业提供通信支持,带来广泛经济效益。
2D Orbit Map
3D Orbit Map
Orbit Altitude Analysis Chart
Orbit Inclination Analysis Chart
Orbit Comprehensive Analysis Chart
View Comprehensive Chart
Conjunction Data List
Event ID Objects TCA Miss Dist (km) Collision Risk Probability Collision Risk Index (CRI) Action
CDM_260914-144505-944206-822621
TSAT-1A (59442)
2026-09-14T
14:45:35+0000
2.121 km
极远距离
2.365118E-6 低风险 0.42
CDM_260908-134804-831706-822621
2026-09-08T
13:48:36+0000
2.722 km
极远距离
1.519823E-6 低风险 0.39
CDM_260915-083604-860206-822621
2026-09-15T
08:36:04+0000
2.988 km
极远距离
1.343741E-6 低风险 0.38
CDM_260915-071404-944406-822621
2026-09-15T
07:14:46+0000
2.649 km
极远距离
1.177516E-6 低风险 0.36
Miss Distance Evolution Trend with All Objects
Collision Probability Evolution Trend with All Objects